Powrót do katalogu

CZ-6A DEB

AktywnySSO
NORAD 54273·DEBRIS·🇨🇳 China

Wystrzelony Nov 11, 2022 z Taiyuan Satellite Launch Center

Loading…

Następne Przeloty (najbliższe 24 godziny)

TLE

ŚwieżeSource: Space-Track

Epoka: Sep 13, 2026, 11:47 UTC

1 54273U 22151Q   26256.49112833  .00001748  00000-0  77640-3 0  9991
2 54273  98.7926 271.5540 0024558  15.7150 344.4786 14.24142056198105

Śledź CZ-6A DEB w czasie rzeczywistym z AllMySat

Download on the App Store